General Mariano Matamoros Airport

Jump to: basic info | weather | frequencies | runways | comments

Related pages: nearby airports | nearby navaids | notams | map

Basic information (top)

Codes: CVJ MMCB
Location: lon 18.834801, lat -99.261299, elev 4,277 ft / 1,304 m msl
Status: medium_airport
Scheduled airline service: yes
Links: Wikipedia Mobile

Weather (top)

Current conditions (rec'd 2015/03/26 17:48Z):

MMCB 261748Z 00000KT 10SM SCT020 26/09 A3015 RMK 8/100 TCU NE

Airport forecast (rec'd 2015/03/16 06:12Z):

TAF MMCB 160509Z 1606/1706 00000KT P6SM SCT020 BKN100 BKN250 
      TEMPO 1606/1609 5SM -RA BKN020CB 
     FM161800 14008KT P6SM BKN015CB BKN080 OVC100 
     FM170500 00000KT P6SM SCT030 SCT100 BKN250

Frequencies (top)

Verify before use: may be inaccurate or out of date.

APP: 128.9 MHz (TOLUCA APP)
TWR: 118.35 MHz (CUERNAVACA TWR)

Runways (top)

02/20: 9,439 x 148 ft (2,877 x 45 m) — paved — lighted — threshold 20 displaced 260 ft (79 m)

Latest comments (top)

No comments yet for General Mariano Matamoros Airport

More... (top)

See also NOTAMs and nearby airports and navaids, or visit the General Mariano Matamoros Airport page at the main OurAirports website..